Regional Weather Roundup
Issued by NWS

Home | Current Version | Previous Version | Graphics & Text | Print | Product List | Glossary On
Versions: 1 2 3 4 5 6 7 8 9 10 11 12 13 14 15 16 17 18 19 20 21 22 23 24 25 26
000
ASUS45 KBOU 140710
RWRCO

WEATHER ROUNDUP FOR COLORADO
NATIONAL WEATHER SERVICE DENVER/BOULDER CO
1200 AM MST THU DEC 14 2017

NOTE: "FAIR" INDICATES FEW OR NO CLOUDS BELOW 12000 FEET WITH NO
SIGNIFICANT WEATHER AND/OR OBSTRUCTIONS TO VISIBILITY.

COZ001>005-013-030-031-140800-
...NORTHWEST COLORADO...

CITY           SKY/WX    TMP DP  RH WIND       PRES   REMARKS
CRAIG          LGT SNOW  30  28  92 W3        30.14F FOG
HAYDEN         LGT SNOW  28  28 100 SW5       30.14S FOG     WCI  23
MEEKER         LGT SNOW  30  30 100 CALM      30.12F FOG
RABBIT EARS PA LGT SNOW  19  18  93 NW7       30.08F VSB 1   WCI  10
STEAMBOAT SPGS CLOUDY    29  29 100 CALM      30.12S VSB 3/4
WALDEN         CLOUDY    25  21  86 NE5       30.13S WCI  19
$$

COZ006>008-011-140800-
...WEST CENTRAL VALLEYS...

CITY           SKY/WX    TMP DP  RH WIND       PRES   REMARKS
GRAND JUNCTION CLOUDY    39  33  79 N8        30.09R
MONTROSE       CLOUDY    36  13  38 NE6       30.07S
EAGLE          CLOUDY    29  20  69 CALM      30.12R
RIFLE          CLOUDY    38  28  67 SE5       30.10S
DELTA          CLOUDY    38  13  36 N6        30.04S
NUCLA          CLOUDY    41  18  38 NW10G16   30.08S
$$

COZ017>023-064>068-140800-
...SOUTHWEST COLORADO...

CITY           SKY/WX    TMP DP  RH WIND       PRES   REMARKS
DURANGO        FAIR      29   8  41 E5        29.99S WCI  24
CORTEZ         FAIR      42  25  50 N12G18    30.04S
PAGOSA SPRINGS CLOUDY    34   5  28 CALM      30.00F
TELLURIDE      CLOUDY    35   7  31 W3        30.06F
WOLF CREEK PAS CLOUDY    27   1  33 CALM      30.13F
$$

COZ009-010-012-014-032>034-037-058>063-140800-
...CENTRAL COLORADO...

CITY           SKY/WX    TMP DP  RH WIND       PRES   REMARKS
ASPEN          CLOUDY    32  20  61 NW10G16   30.06R WCI  24
BUENA VISTA    FLURRIES  31  21  65 NE12      30.07F WCI  22
COPPER MTN     NOT AVBL
BERTHOUD PASS  LGT SNOW  10   0  61 W9G16     30.07F WCI  -2
COTTONWOOD PAS CLOUDY    32  23  69 CALM      30.07F
GUNNISON       FAIR      29  14  53 E5        30.01F WCI  24
KREMMLING      CLOUDY    34  30  86 CALM      30.11F
LEADVILLE      LGT SNOW  24  22  91 S6        30.04F FOG     WCI  17
MONARCH PASS   FLURRIES  16  14  93 E17       30.16F WCI   0
SALIDA         CLOUDY    37   7  28 SE14G20   30.13F
SUNLIGHT       LGT SNOW  18  16  93 NW9       30.12F WCI   6
WILKERSON PASS LGT SNOW  14  10  85 E7        30.10F WCI   4
$$

COZ069>075-140800-
...SAN LUIS VALLEY/SANGRE DE CRISTO MOUNTAINS...

CITY           SKY/WX    TMP DP  RH WIND       PRES   REMARKS
ALAMOSA        CLOUDY    36   9  32 E14       29.98F
DEL NORTE      CLOUDY    33   6  31 W3        30.01S
LA VETA PASS   MOCLDY    23   9  54 N20         N/A  WCI   8
SAGUACHE       CLOUDY    37  18  44 N8        30.00F
$$

COZ035-036-038>040-140800-
...NORTHERN COLORADO FRONT RANGE...

CITY           SKY/WX    TMP DP  RH WIND       PRES   REMARKS
DENVER INTL AP FLURRIES  33  24  69 N18       30.17R WCI  22
DMNS CITY PARK NOT AVBL
AURORA         FLURRIES  32  24  74 NE6       30.17F WCI  26
FRONT RANGE AP CLOUDY    36  26  68 N12G18    30.17S
ERIE MUNI ARPT LGT SNOW  33  31  91 NE8       30.24R WCI  26
BOULDER MUN AP FLURRIES  34  30  86 NE10      30.18R WCI  26
CENTENNIAL     FLURRIES  31  25  78 NE8       30.16S WCI  23
BROOMFIELD     LGT SNOW  32  30  93 NE13      30.18R WCI  22
FORT COLLINS   LGT SNOW  32  30  93 N15       30.19S FOG     WCI  22
LONGMONT       LGT SNOW  36  32  85 NE9       30.21S
$$

COZ041-046-047-076>085-087-088-140800-
...PIKES PEAK/PALMER DIVIDE AND SOUTHERN FOOTHILLS...

CITY           SKY/WX    TMP DP  RH WIND       PRES   REMARKS
COLO. SPRINGS  CLOUDY    38  13  35 N12       30.12F
A. F. ACADEMY  CLOUDY    33  10  38 N7        30.11F WCI  27
SCHRIEVER AFB  CLOUDY    36  12  37 NE7       30.11F
CHEYENNE MTN   CLOUDY    34  11  39 N8        30.06F WCI  27
ELLICOTT         N/A    N/A N/A N/A NE7       30.10F
FALCON         CLOUDY    32  10  40 N7        30.12F WCI  26
FORT CARSON    FAIR      39  12  32 N9        30.11S
LIMON          MOCLDY    34  16  47 N16       30.13S WCI  24
MONUMENT HILL  FLURRIES  27  21  80 N15G23    30.15R WCI  15
CANON CITY     CLOUDY    39  14  35 SE8       30.09F
WALSENBURG     CLOUDY    36  12  38 N6        30.11S
TRINIDAD       CLOUDY    37  13  37 NE6       30.09R
$$

COZ042>045-048>051-090-091-140800-
...NORTHEAST COLORADO...

CITY           SKY/WX    TMP DP  RH WIND       PRES   REMARKS
GREELEY ARPT   CLOUDY    35  25  66 N13       30.19R WCI  26
AKRON          CLOUDY    35  16  45 N16G23    30.14R WCI  25
BURLINGTON     CLOUDY    37  19  48 N10       30.12R
WRAY           CLOUDY    37  19  48 N8        30.14S
YUMA           CLOUDY    34  18  51 N6        30.13S WCI  29
STERLING       CLOUDY    37  23  56 N14       30.13R
HOLYOKE        FAIR      37  21  52 NW6       30.13S
FORT MORGAN    FLURRIES  36  22  57 N10G17    30.17S
$$

COZ086-089-092>099-140800-
...SOUTHEAST COLORADO...

CITY           SKY/WX    TMP DP  RH WIND       PRES   REMARKS
PUEBLO         CLOUDY    44  13  28 VRB3      30.11S
LA JUNTA       FAIR      39  15  37 N7        30.11R
LAMAR          FAIR      38  14  37 NE5       30.10R
SPRINGFIELD      N/A     36  15  42 N5        30.09R
$$




USA.gov is the U.S. government's official web portal to all federal, state and local government web resources and services.